Skip Page Navigation
NASA JPL Caltech
NASA Logo - Jet Propulsion Laboratory + View the NASA Portal
+ Center for Near-Earth Object Studies
JPL Home Earth Solar System Stars & Galaxies Technology
JPL Solar System Dynamics
BODIES ORBITS EPHEMERIDES TOOLS PHYSICAL DATA DISCOVERY FAQ SITE MAP
IMPORTANT: The SSD Announcement email list is now available. Major changes are coming in the near future, including possible hostname and/or URL changes. To be notified of such changes, subscribe to this email list.

Please visit this page for more details.


JPL Small-Body Database Browser
Search: [ help ]  
215324 (2001 TP198)
Classification: Main-belt Asteroid          SPK-ID: 2215324
Ephemeris | Orbit Diagram | Orbital Elements | Mission Design | Physical Parameters | Discovery Circumstances | Close-Approach Data ]

[ show orbit diagram ]
Orbital Elements at Epoch 2458600.5 (2019-Apr-27.0) TDB
Reference: JPL 13 (heliocentric ecliptic J2000)
 Element Value Uncertainty (1-sigma)   Units 
e .1004112729270571 5.6652e-08  
a 2.805607474028122 2.9504e-08 au
q 2.523892856227293 1.5737e-07 au
i 4.785145096624329 6.3214e-06 deg
node 97.76152601660839 7.8321e-05 deg
peri 292.4502539237823 8.6057e-05 deg
M 248.0862384932171 3.8148e-05 deg
tp 2459134.104869046352
(2020-Oct-11.60486905)
0.00018659 TDB
period 1716.480174290667
4.70
2.7076e-05
7.413e-08
d
yr
n .2097315223281092 3.3084e-09 deg/d
Q 3.087322091828951 3.2467e-08 au
  Orbit Determination Parameters
   # obs. used (total)      235  
   data-arc span      6058 days (16.59 yr)  
   first obs. used      2001-09-21  
   last obs. used      2018-04-23  
   planetary ephem.      DE431  
   SB-pert. ephem.      SB431-N16  
   condition code      0  
   norm. resid. RMS      .58735  
   source      ORB  
   producer      Otto Matic  
   solution date      2018-May-07 06:07:05  

Additional Information
 Earth MOID = 1.53354 au 
 Jupiter MOID = 2.32267 au 
 T_jup = 3.311 
[ show covariance matrix ]

Ephemeris | Orbit Diagram | Orbital Elements | Mission Design | Physical Parameters | Discovery Circumstances | Close-Approach Data ]

Physical Parameter Table
Parameter Symbol Value Units Sigma Reference Notes
absolute magnitude H 16.1   n/a MPO348582  

215324 (2001 TP198)          Discovered 2001-Oct-11 by LINEAR at Socorro
Reference: 20090607/Numbers.arcLast Updated: 2009-06-08

[ show close-approach data ]
Ephemeris | Orbit Diagram | Orbital Elements | Mission Design | Physical Parameters | Discovery Circumstances | Close-Approach Data ]
ABOUT SSD CREDITS/AWARDS PRIVACY/COPYRIGHT GLOSSARY LINKS
FirstGov
(server date/time)  
NASA Home Page
Site Manager:   Ryan S. Park
Webmaster  Alan B. Chamberlin